Location: Mountain Grove
(34.0887°N, 86.6172°W)
Time: 00:42:32
(UTC+00:00)

Cosmos-2242 - Pass Details

Date: 14 July 2020
Orbit: 592 x 616 km, 82.5° (Epoch: 12 August)

Event Time Altitude Azimuth Distance (km) Brightness Sun altitude
Rises 01:45:27 0° 358° (N) 2,881 7.0 -9.1°
Reaches altitude 10° 01:47:43 10° 3° (N) 1,976 6.1 -9.5°
Maximum altitude 01:52:01 56° 82° (E) 729 3.2 -10.2°
Drops below altitude 10° 01:56:18 10° 161° (SSE) 1,969 5.2 -10.9°
Enters shadow 01:56:25 - 161° (SSE) 2,010 5.2 -11.0°
